User: anonymous   Login
Location: SAPM � Hemmingford
(45.0500°N, 73.5833°W)
Time: 02:10:23
(UTC-04:00)
Language:

Cosmos 1603 - Orbit

View from above orbital plane
View from above orbital plane
View from above satellite
View from above satellite

Ground track
Ground track

The orbit data is extracted from the following two-line orbital elements,

1 15333U 84106A   14303.12686060  .00000291  00000-0  17791-3 0  1187
2 15333 071.0273 304.6636 0021258 234.7155 187.3956 14.13959022552412
Epoch (UTC): 30 October 2014 03:02:40
Eccentricity: 0.0021258
inclination: 71.0273°
perigee height: 830 km
apogee height: 861 km
right ascension of ascending node: 304.6636°
argument of perigee: 234.7155°
revolutions per day: 14.13959022
mean anomaly at epoch: 187.3956°
orbit number at epoch: 55241

The dashed part of the orbit path shows where the satellite is in the earth's shadow,  

DLR